Regional Weather Roundup
Issued by NWS

Home | Current Version | Previous Version | Text Only | Print | Product List | Glossary Off
Versions: 1 2 3 4 5 6 7 8 9 10 11 12 13 14 15 16 17 18 19 20 21 22 23 24 25 26 27 28 29 30 31 32 33 34 35 36 37 38 39 40 41 42 43 44 45 46 47 48 49 50

339
ASUS43 KDTX 220510
RWRMI
MICHIGAN HOURLY REGIONAL WEATHER ROUNDUP
NATIONAL WEATHER SERVICE DETROIT/PONTIAC MI
ISSUED BY NATIONAL WEATHER SERVICE GRAND RAPIDS MI
100 AM EDT TUE AUG 22 2017

NOTE: "FAIR" INDICATES FEW OR NO CLOUDS BELOW 12,000 FEET WITH NO
SIGNIFICANT WEATHER AND/OR OBSTRUCTION TO VISIBILITY.

MIZ047>049-052>055-059>063-066>070-074>076-081>083-220600-
SOUTHEAST LOWER MICHIGAN

CITY           SKY/WX    TMP DP  RH WIND       PRES   REMARKS
ADRIAN         MOCLDY    74  70  87 S5        29.98F
ALMA           MOCLDY    71  65  83 S9        29.90F
ANN ARBOR      CLOUDY    73  67  81 S6        29.96F
BAD AXE        CLOUDY    75  67  76 SW8       29.90F
DETROIT CITY   CLOUDY    79  69  71 SW9       29.96F
DETROIT        CLOUDY    77  70  79 SW8       29.97F
FLINT          CLOUDY    73  64  73 S6        29.92F
GROSSE ILE     CLOUDY    77  72  83 SW6       29.97S
HILLSDALE      CLOUDY    72  68  88 CALM      29.98F
HOWELL         CLOUDY    71  65  83 S5        29.94F

CITY           SKY/WX    TMP DP  RH WIND       PRES   REMARKS
JACKSON        MOCLDY    69  66  90 S6        29.96F
LANSING        MOCLDY    70  65  84 S8        29.93F
MASON          CLOUDY    69  66  88 SE6       29.94F
MONROE         LGT RAIN  76  72  85 W7        29.98S
MT. CLEMENS    MOCLDY    79  69  71 SW14      29.93F
PONTIAC        LGT RAIN  74  66  76 SW8       29.94F
PORT HOPE        N/A     76  68  76 VRB6      29.87F
PORT HURON     MOCLDY    75  72  88 CALM      29.94F
TRI CITIES     CLOUDY    74  66  76 SW9       29.89F
YPSILANTI      CLOUDY    77  69  76 SW6       29.97F
$$
MIZ043>046-050>051-056>058-064>065-071>073-077>080-220600-
SOUTHWEST LOWER MICHIGAN

CITY           SKY/WX    TMP DP  RH WIND       PRES   REMARKS
BATTLE CREEK   CLOUDY    71  70  96 S10       29.94F
BENTON HARBOR  CLOUDY    77  69  76 S9        29.90F
BIG RAPIDS     CLOUDY    72  66  81 S7        29.86F
COLDWATER      MOCLDY    74  72  93 S5        29.96F
HOLLAND        CLOUDY    70  68  93 S6        29.88F
GRAND RAPIDS   MOCLDY    70  69  97 S7        29.90F
KALAMAZOO      CLOUDY    73  69  87 S5        29.93F
MARSHALL       MOCLDY    68  68  99 SE5       29.94F
MOUNT PLEASANT MOCLDY    75  65  70 S6        29.87F
MUSKEGON       PTCLDY    75  70  84 S15       29.86F
STURGIS        MOCLDY    73  71  91 S8        29.95F
$$
MIZ016>042-220600-
NORTHERN LOWER MICHIGAN

CITY           SKY/WX    TMP DP  RH WIND       PRES   REMARKS
ALPENA         PTCLDY    71  69  93 S3        29.84F
BEAVER ISLAND  PTCLDY    69  68  95 S3        29.79F
BELLAIRE       CLOUDY    66  65  95 CALM      29.82F FOG
CADILLAC       PTCLDY    72  68  88 SW9       29.86F
CHARLEVOIX     PTCLDY    70  70 100 S7        29.82F
GAYLORD        MOCLDY    69  67  93 SW9       29.86F
HOUGHTON LAKE  MOCLDY    72  68  87 SW8       29.88F
MANISTEE       PTCLDY    70  68  93 VRB3      29.81F
OSCODA         MOCLDY    75  69  81 SW8       29.85F
PELLSTON       CLOUDY    67  67 100 CALM      29.81F
TRAVERSE CITY  PTCLDY    73  68  84 VRB3      29.80F
LUDINGTON      PTCLDY    73  68  82 S13G20    29.81F
$$
MIZ007>008-015-220600-
EASTERN UPPER MICHIGAN

CITY           SKY/WX    TMP DP  RH WIND       PRES   REMARKS
KINROSS        CLOUDY    66  65  96 S7        29.80F
MACKINAC ISLAN CLOUDY    67  67 100 S7        29.80F
NEWBERRY       CLOUDY    66  65  97 SW6       29.79S
S. S. MARIE    CLOUDY    67  65  93 SE3       29.79F
$$
MIZ004>006-011>014-085-220600-
CENTRAL UPPER MICHIGAN

CITY           SKY/WX    TMP DP  RH WIND       PRES   REMARKS
MANISTIQUE     PTCLDY    66  60  81 CALM      29.77F HAZE
ESCANABA       CLOUDY    67  66  97 SW5       29.77F FOG
MENOMINEE      CLOUDY    71  67  87 W5        29.80S
SAWYER-GWINN   CLOUDY    63  62  97 CALM      29.78F
$$
MIZ001>003-009>011-084-220600-
WESTERN UPPER MICHIGAN

CITY           SKY/WX    TMP DP  RH WIND       PRES   REMARKS
IRON MOUNTAIN  CLOUDY    67  65  93 S3        29.77F FOG
HOUGHTON       LGT RAIN  58  56  93 E7        29.75F
COPPER HARBOR    N/A     59  57  93 NE3       29.76F
IRONWOOD       LGT RAIN  61  60  97 W3        29.79F
$$

ABBREVIATIONS USED IN REMARKS
   TC - TEMPERATURE IN CELSIUS
  WCI - WIND CHILL INDEX
   HX - HEAT INDEX
  VSB - VISIBILITY





USA.gov is the U.S. government's official web portal to all federal, state and local government web resources and services.